Regional Weather Roundup
Issued by NWS

Home | Current Version | Previous Version | Text Only | Print | Product List | Glossary On
Versions: 1 2 3 4 5 6 7 8 9 10 11 12 13 14 15 16 17 18 19 20 21 22 23 24 25 26 27 28 29 30 31 32 33 34 35 36 37 38 39 40 41 42 43 44 45 46 47 48 49 50
845
ASUS45 KBOI 121210
RWRID

IDAHO REGIONAL WEATHER ROUNDUP
NATIONAL WEATHER SERVICE BOISE ID
500 AM MST FRI FEB 12 2016

NOTE: "FAIR" INDICATES FEW OR NO CLOUDS BELOW 12000 FEET
WITH NO SIGNIFICANT WEATHER AND/OR OBSTRUCTIONS TO VISIBILITY

IDZ012-014-121300-
SOUTHWEST IDAHO


CITY           SKY/WX    TMP DP  RH WIND       PRES   REMARKS
BOISE          CLEAR     31  27  85 CALM      30.33S
CALDWELL       CLEAR     27  26  96 CALM      30.35S FOG
MOUNTAIN HOME  PTCLDY    29  26  89 E2        30.32R
$$

IDZ016-017-121300-
SOUTHCENTRAL IDAHO


CITY           SKY/WX    TMP DP  RH WIND       PRES   REMARKS
BURLEY         PTCLDY    28  27  96 N3        30.30S
JEROME         PTCLDY    28  21  75 NE23      30.30S WCI  14
TWIN FALLS     CLEAR     29  27  92 E8        30.30S WCI  21
$$

IDZ019>023-121300-
SOUTHEAST IDAHO


CITY           SKY/WX    TMP DP  RH WIND       PRES   REMARKS
IDAHO FALLS    CLOUDY    20  17  88 N7        30.35S WCI  11
POCATELLO      CLOUDY    22  20  92 E5        30.36R WCI  16
REXBURG        FOG       23  22  96 CALM      30.35R VSB 1/4
$$

IDZ006-010-011-018-031-032-121300-
CENTRAL IDAHO MOUNTAINS


CITY           SKY/WX    TMP DP  RH WIND       PRES   REMARKS
MCCALL         MOCLDY    24  22  91 NE3       30.27S
HAILEY         PTCLDY    32  28  86 NW9       30.33S WCI  24
STANLEY          N/A     19  15  84 E8        30.33F WCI   9
SALMON         CLOUDY    23  19  86 CALM      30.33F
CHALLIS        MOCLDY    19  16  88 CALM      30.31S
$$

IDZ002-004-006-007-026-121300-
NORTHERN IDAHO


CITY           SKY/WX    TMP DP  RH WIND       PRES   REMARKS
LEWISTON       CLOUDY    48  36  63 VRB3      30.20R
LOWELL           N/A     40  38  93 NW3       30.27F
COEUR D`ALENE  CLOUDY    39  36  87 NE8       30.19R WCI  34
MULLAN PASS    FOG       34  34 100 S7        30.18F VSB 1/4 WCI  28
$$




USA.gov is the U.S. government's official web portal to all federal, state and local government web resources and services.